Tracking 29892 objects as of 21-Nov-2024
HD Live streaming from Space Station
objects crossing your sky now

SL-16 DEB

Track SL-16 DEB now!
10-day predictions


NORAD ID: 19125
Int'l Code: 1988-039C
Perigee: 843.0 km
Apogee: 1,102.9 km
Inclination: 71.0 °
Period: 104.4 minutes
Semi major axis: 7343 km
RCS: 0.089 m2 (small)
Launch date: May 15, 1988
Source: Commonwealth of Independent States (former USSR) (CIS)
Launch site: TYURATAM MISSILE AND SPACE COMPLEX (TTMTR)

Note: This is SATELLITE DEBRIS
Your satellite tracking list
Your tracking list is empty




NASA's NSSDC Master Catalog

Two Line Element Set (TLE):
1 19125U 88039C   24325.87500946  .00000134  00000-0  15292-3 0  9991
2 19125  71.0340  38.6152 0176954  42.4696 318.9943 13.79466156837107
Source of the keplerian elements: AFSPC